Flag for Cyprus Weather past 2 weeks in Famagusta, Northern Cyprus, Cyprus

Now
75 °F

Passing clouds.


Feels Like: 77 °F
Forecast: 67 / 78 °F
Wind: 5 mph from Southeast

Location: Larnaca Airport

Current Time: May 26, 2015 at 11:30:23 AM

Latest Report: May 26, 2015 at 11:00 AM


Visibility: N/A

Pressure: 29.89 "Hg

Humidity: 65%

Dew point: 63 °F

Location of FamagustaLocation

Historic Weather in Famagusta — Graph

°F

Famagusta temperature yesterday

Maximum temperature yesterday: 91 °F (at 4:00 PM)
Minimum temperature yesterday: 63 °F (at 4:30 AM)
Average temperature yesterday: 73 °F

Past Weeks' High & Low Weather Summary

 TemperatureHumidityPressure
High93 °F (May 18, 2:00 PM)100% (May 24, 12:30 AM)30.21 "Hg (May 24, 12:30 AM)
Low57 °F (May 15, 4:30 AM)21% (May 20, 5:00 PM)29.71 "Hg (May 19, 5:30 PM)
Average73 °F61%29.89 "Hg
* Reported May 11 10:00 AM — May 26 10:30 AM, Famagusta, Weather by CustomWeather, © 2015

Note: Actual official high and low records may vary slightly from our data, if they occured in-between our weather recording intervals... More about our weather records

Advertising

Famagusta weather history for previous 24 hours

 ConditionsComfort  
Time TempWeatherWind HumidityBarometerVisibility
10:30 AM
Tue, May 26
73 °FPassing clouds.7 mph65%29.89 "HgN/A
10:00 AM73 °FPassing clouds.9 mph65%29.89 "HgN/A
9:30 AM73 °FPassing clouds.9 mph61%29.86 "HgN/A
9:00 AM72 °FPassing clouds.7 mph65%29.86 "HgN/A
8:30 AM72 °FPassing clouds.6 mph61%29.86 "HgN/A
8:00 AM72 °FPassing clouds.6 mph69%29.86 "HgN/A
7:30 AM70 °FPassing clouds.2 mph73%29.86 "HgN/A
7:00 AM66 °FPassing clouds.2 mph83%29.86 "HgN/A
6:30 AM64 °FPassing clouds.No wind83%29.83 "HgN/A
6:00 AM61 °FPassing clouds.2 mph94%29.83 "HgN/A
5:30 AM63 °FClear.2 mph88%29.83 "Hg10 mi
5:00 AM63 °FPassing clouds.3 mph83%29.83 "HgN/A
4:30 AM64 °FClear.5 mph78%29.83 "Hg10 mi
4:00 AM64 °FClear.6 mph78%29.83 "Hg10 mi
3:30 AM66 °FClear.5 mph78%29.83 "Hg10 mi
3:00 AM66 °FClear.6 mph83%29.83 "Hg10 mi
2:30 AM66 °FClear.6 mph83%29.83 "Hg10 mi
2:00 AM66 °FPassing clouds.7 mph83%29.83 "HgN/A
1:30 AM68 °FClear.9 mph83%29.83 "Hg10 mi
1:00 AM68 °FClear.9 mph78%29.83 "Hg10 mi
12:30 AM68 °FClear.7 mph78%29.83 "Hg10 mi
12:00 AM68 °FClear.6 mph83%29.83 "Hg10 mi
11:30 PM
Mon, May 25
68 °FClear.2 mph78%29.83 "Hg10 mi
11:00 PM68 °FPassing clouds.3 mph78%29.83 "HgN/A
10:30 PM68 °FClear.2 mph78%29.83 "Hg10 mi
10:00 PM70 °FPassing clouds.5 mph73%29.83 "HgN/A
9:30 PM70 °FClear.5 mph78%29.83 "Hg10 mi
9:00 PM72 °FClear.9 mph73%29.83 "Hg10 mi
8:30 PM72 °FSunny.12 mph69%29.83 "Hg10 mi
8:00 PM73 °FSunny.13 mph61%29.83 "Hg10 mi
7:30 PM75 °FSunny.12 mph54%29.80 "Hg10 mi
7:00 PM75 °FPassing clouds.14 mph57%29.80 "HgN/A
6:30 PM77 °FPassing clouds.16 mph57%29.80 "HgN/A
6:00 PM79 °FPassing clouds.12 mph48%29.80 "HgN/A
5:30 PM81 °FPassing clouds.18 mph51%29.80 "HgN/A
5:00 PM82 °FPassing clouds.20 mph51%29.80 "HgN/A
4:30 PM90 °FPassing clouds.20 mph33%29.83 "HgN/A
4:00 PM91 °FPassing clouds.17 mph21%29.83 "HgN/A
3:30 PM90 °FSunny.20 mph29%29.83 "Hg10 mi
3:00 PM86 °FSunny.21 mph35%29.83 "Hg10 mi
2:30 PM86 °FSunny.21 mph33%29.83 "Hg10 mi
2:00 PM81 °FPassing clouds.20 mph54%29.86 "HgN/A
1:30 PM79 °FPassing clouds.17 mph70%29.86 "HgN/A
1:00 PM77 °FPassing clouds.18 mph74%29.89 "HgN/A
12:30 PM79 °FPassing clouds.13 mph54%29.89 "HgN/A
12:00 PM75 °FPassing clouds.12 mph78%29.89 "HgN/A
11:30 AM77 °FPassing clouds.9 mph69%29.89 "HgN/A
11:00 AM75 °FPassing clouds.9 mph74%29.89 "HgN/A
Weather by CustomWeather, © 2015

See weather overviewHow to use our weather pages